Meadville, PA

3:00 AM EST on December 10, 2019 (GMT -0500)
Port Meadville

Weather History for KGKJ - October, 2019

Change the Weather History Date:

Monday, October 7, 2019

  Actual Average Record
Temperature  
Mean Temperature 54 °F -  
Max Temperature 57 °F 63 °F 83 °F (1963)
Min Temperature 50 °F 42 °F 26 °F (1954)
Degree Days  
Heating Degree Days 11    
Growing Degree Days 4 (Base 50)    
Moisture  
Dew Point 50 °F    
Average Humidity 89    
Maximum Humidity 96    
Minimum Humidity 77    
Precipitation  
Precipitation 0.26 in - - ()
Sea Level Pressure  
Sea Level Pressure 30.16 in    
Wind  
Wind Speed 4 mph ()    
Max Wind Speed 8 mph    
Max Gust Speed -    
Visibility 10.0 miles    
Events Rain    
Averages and records for this station are not official NWS values.
T = Trace of Precipitation, MM = Missing Value Source: Averaged Metar Reports

Daily Weather History Graph

Daily Weather History Graph

Search for Another Location

Airport or City:

Astronomy

Oct. 07, 2019 Rise Set
Actual Time 7:23 AM EDT 6:52 PM EDT
Civil Twilight 6:56 AM EDT 7:20 PM EDT
Nautical Twilight 6:23 AM EDT 7:52 PM EDT
Astronomical Twilight 5:51 AM EDT 8:24 PM EDT
Moon 4:18 PM EDT (10/7) 1:09 AM EDT (10/7)
Length of Visible Light 12h 24m
Length of Day
11h 29m
Waxing Gibbous, 69% of the Moon is Illuminated
Oct 7
Waxing Gibbous
Oct 13
Full
Oct 21
Last Quarter
Oct 27
New
Nov 4
First Quarter

Hourly Weather History & Observations

Time (EDT) Temp. Dew Point Humidity Pressure Visibility Wind Dir Wind Speed Gust Speed Precip Events Conditions
12:53 AM 55.9 °F 50.0 °F 80% 30.13 in 10.0 mi Variable 5.8 mph - 0.02 in Rain Light Rain
1:53 AM 53.1 °F 48.9 °F 86% 30.12 in 10.0 mi NW 3.5 mph - 0.12 in Rain Rain
2:53 AM 52.0 °F 50.0 °F 93% 30.11 in 10.0 mi Calm Calm - 0.07 in Rain Light Rain
3:49 AM 51.8 °F 50.0 °F 94% 30.11 in 10.0 mi SSW 4.6 mph - 0.04 in Rain Light Rain
3:53 AM 52.0 °F 50.0 °F 93% 30.11 in 10.0 mi SSW 5.8 mph - 0.04 in Rain Light Rain
4:53 AM 52.0 °F 50.0 °F 93% 30.12 in 10.0 mi SSW 4.6 mph - 0.01 in Rain Light Rain
5:14 AM 51.1 °F 48.9 °F 92% 30.13 in 10.0 mi South 3.5 mph - 0.00 in   Overcast
5:24 AM 52.0 °F 50.0 °F 93% 30.13 in 10.0 mi South 3.5 mph - 0.00 in   Overcast
5:53 AM 52.0 °F 50.0 °F 93% 30.13 in 10.0 mi South 3.5 mph - 0.00 in Rain Light Rain
6:53 AM 52.0 °F 50.0 °F 93% 30.14 in 10.0 mi SSW 5.8 mph - 0.00 in   Overcast
7:53 AM 52.0 °F 50.0 °F 93% 30.15 in 10.0 mi SSW 5.8 mph - N/A   Overcast
8:53 AM 52.0 °F 50.0 °F 93% 30.16 in 10.0 mi SSW 4.6 mph - N/A   Overcast
9:53 AM 53.1 °F 50.0 °F 89% 30.16 in 10.0 mi SSW 4.6 mph - N/A   Scattered Clouds
10:53 AM 55.0 °F 50.0 °F 83% 30.17 in 10.0 mi SSW 6.9 mph - N/A   Clear
11:53 AM 55.0 °F 50.0 °F 83% 30.17 in 10.0 mi SW 5.8 mph - N/A   Clear
12:53 PM 57.0 °F 50.0 °F 77% 30.18 in 10.0 mi WSW 8.1 mph - N/A   Clear
1:53 PM 57.0 °F 52.0 °F 83% 30.17 in 10.0 mi WSW 4.6 mph - N/A   Clear
2:53 PM 57.0 °F 51.1 °F 81% 30.16 in 10.0 mi WSW 5.8 mph - N/A   Clear
3:53 PM 57.0 °F 51.1 °F 81% 30.16 in 10.0 mi SSW 4.6 mph - N/A   Clear
4:53 PM 55.9 °F 51.1 °F 84% 30.16 in 10.0 mi SSW 4.6 mph - N/A   Clear
5:53 PM 55.9 °F 52.0 °F 87% 30.17 in 10.0 mi SSW 4.6 mph - N/A   Clear
6:53 PM 54.0 °F 52.0 °F 93% 30.18 in 10.0 mi SSW 3.5 mph - N/A   Clear
7:53 PM 53.1 °F 51.1 °F 93% 30.19 in 10.0 mi SSW 3.5 mph - N/A   Clear
8:53 PM 53.1 °F 51.1 °F 93% 30.21 in 10.0 mi Calm Calm - N/A   Clear
9:53 PM 52.0 °F 50.0 °F 93% 30.23 in 10.0 mi SW 3.5 mph - N/A   Clear
10:53 PM 51.1 °F 50.0 °F 96% 30.24 in 10.0 mi Calm Calm - N/A   Clear
11:53 PM 50.0 °F 48.9 °F 96% 30.25 in 10.0 mi South 3.5 mph - N/A   Clear